This demonstration page uses our WeatherBlox Daily Observations layout. Learn more.

Left ArrowRight Arrow

40.92945, -100.16068

Hourly Observations for May 11, 2021

Temp ( °F °C ) Dew Point ( °F °C ) Humidity (%) Winds ( mph kmh ) Pressure ( in mb ) Visibility ( mi km ) Precip ( " mm )
12:15 am 00:15 Cloudy 48 8.7 42 5.8 82 82 NW 7 11 30.26 1025 10 16 N/A
12:35 am 00:35 Cloudy 47 8.3 42 5.7 84 84 NW 6 9 30.27 1025 10 16 N/A
12:55 am 00:55 Cloudy 45 7.4 42 5.4 87 87 NW 6 9 30.28 1025 10 16 N/A
1:15 am 01:15 Partly Cloudy 45 7 41 4.9 87 87 NNW 3 6 30.28 1025 10 16 N/A
1:35 am 01:35 Clear 44 6.5 40 4.3 86 86 N N/A 30.28 1026 10 16 N/A
1:55 am 01:55 Partly Cloudy 44 6.5 39 3.7 83 83 N N/A 30.28 1026 10 16 N/A
2:15 am 02:15 Mostly Cloudy 43 6.2 37 2.7 79 79 NNE 5 7 30.29 1026 10 16 N/A
2:35 am 02:35 Mostly Cloudy 45 7 33 0.8 65 65 NE 3 6 30.30 1026 10 16 N/A
2:55 am 02:55 Cloudy 45 7 33 0.8 65 65 NE 5 7 30.29 1026 10 16 N/A
3:15 am 03:15 Cloudy 44 6.6 33 0.8 67 67 NE 6 9 30.28 1026 10 16 N/A
3:35 am 03:35 Cloudy 44 6.5 33 0.7 67 67 ENE 6 9 30.28 1026 10 16 N/A
3:55 am 03:55 Cloudy 44 6.7 33 0.4 64 64 ENE 5 7 30.29 1026 10 16 N/A
4:15 am 04:15 Cloudy 44 6.5 33 0.4 65 65 NE 6 9 30.28 1026 10 16 N/A
4:35 am 04:35 Cloudy 44 6.7 32 undefined 63 63 NE 6 9 30.29 1026 10 16 N/A
4:55 am 04:55 Cloudy 44 6.5 32 -0.1 63 63 NE 8 13 30.28 1026 10 16 N/A
5:15 am 05:15 Partly Cloudy 44 6.4 31 -0.6 61 61 NE 8 13 30.29 1026 10 16 N/A
5:35 am 05:35 Partly Cloudy 43 6.3 30 -1 60 60 NE 9 15 30.28 1025 10 16 N/A
5:55 am 05:55 Clear 43 6 30 -0.9 62 62 NE 8 13 30.29 1026 10 16 N/A
6:15 am 06:15 Partly Cloudy 43 6 30 -1 61 61 NE 7 11 30.31 1026 10 16 N/A
6:35 am 06:35 Mostly Cloudy 42 5.5 31 -0.6 65 65 ENE 6 9 30.31 1027 10 16 N/A
6:55 am 06:55 Mostly Cloudy 42 5.7 30 -0.9 63 63 ENE 8 13 30.31 1026 10 16 N/A
7:15 am 07:15 Partly Cloudy 42 5.7 31 -0.6 64 64 NE 7 11 30.31 1026 10 16 N/A
7:35 am 07:35 Sunny 43 6.1 31 -0.6 63 63 ENE 6 9 30.33 1027 10 16 N/A
7:55 am 07:55 Sunny 44 6.4 31 -0.7 61 61 N N/A 30.34 1027 10 16 N/A
8:15 am 08:15 Partly Cloudy 45 7 32 -0.2 61 61 E 6 9 30.34 1027 10 16 N/A
8:35 am 08:35 Mostly Cloudy 45 7 32 -0.2 61 61 ENE 6 9 30.34 1027 10 16 N/A
8:55 am 08:55 Cloudy 45 7.3 31 -0.3 59 59 ENE 7 11 30.34 1027 10 16 N/A
9:15 am 09:15 Mostly Cloudy 46 7.7 31 -0.4 57 57 E 7 11 30.33 1027 10 16 N/A
9:35 am 09:35 Mostly Cloudy 46 8 31 -0.3 56 56 E 8 13 30.33 1027 10 16 N/A
9:55 am 09:55 Partly Cloudy 48 8.8 32 -0.1 54 54 ENE 6 9 30.31 1026 10 16 N/A
10:15 am 10:15 Partly Cloudy 49 9.5 32 0.1 52 52 E 6 9 30.30 1026 10 16 N/A
10:35 am 10:35 Sunny 50 10.1 33 0.4 51 51 ENE 9 15 30.28 1025 10 16 N/A
10:55 am 10:55 Sunny 52 11.1 33 0.5 48 48 ENE 8 13 30.27 1025 10 16 N/A
11:15 am 11:15 Sunny 53 11.4 32 0.2 46 46 ENE 7 11 30.27 1025 10 16 N/A
11:35 am 11:35 Sunny 53 11.8 31 -0.3 44 44 ENE 8 13 30.26 1025 10 16 N/A
11:55 am 11:55 Sunny 54 12.4 32 0.2 43 43 ENE 7 11 30.26 1025 10 16 N/A
12:15 pm 12:15 Sunny 55 12.7 31 -0.3 41 41 E 7 11 30.26 1025 10 16 N/A
12:35 pm 12:35 Sunny 55 12.7 29 -1.9 37 37 NE 3 6 30.26 1025 10 16 N/A
12:55 pm 12:55 Sunny 55 12.8 27 -2.6 34 34 NE 10 17 30.27 1025 10 16 N/A
1:15 pm 13:15 Sunny 55 12.6 28 -2.2 36 36 ESE 6 9 30.27 1025 10 16 N/A
1:35 pm 13:35 Sunny 55 12.7 28 -2.5 35 35 ESE 5 7 30.27 1025 10 16 N/A
1:50 pm 13:50 Sunny 55 12.7 28 -2.5 35 35 ESE 5 7 30.27 1025 10 16 N/A
2:15 pm 14:15 Sunny 56 13.5 28 -2.4 33 33 NNE 5 7 30.26 1025 10 16 N/A
2:35 pm 14:35 Sunny 57 13.7 30 -1.3 36 36 NNW 5 7 30.25 1024 10 16 N/A
2:55 pm 14:55 Partly Cloudy 57 14.1 29 -1.4 35 35 ENE 8 13 30.24 1024 10 16 N/A
3:15 pm 15:15 Partly Cloudy 57 14.1 28 -2.1 33 33 NE 5 7 30.23 1024 10 16 N/A
3:35 pm 15:35 Partly Cloudy 58 14.2 30 -1.3 35 35 ENE 5 7 30.23 1024 10 16 N/A
3:55 pm 15:55 Partly Cloudy 58 14.3 30 -1.3 34 34 E 5 7 30.22 1023 10 16 N/A
4:15 pm 16:15 Partly Cloudy 58 14.6 29 -1.4 33 33 SSE 5 7 30.22 1023 10 16 N/A
4:35 pm 16:35 Partly Cloudy 60 15.5 30 -0.9 33 33 E 9 15 30.20 1023 10 16 N/A
4:55 pm 16:55 Partly Cloudy 59 15.1 30 -1.2 33 33 SE 3 6 30.20 1023 10 16 N/A
5:15 pm 17:15 Mostly Cloudy 58 14.5 30 -1.2 34 34 ESE 6 9 30.21 1023 10 16 N/A
5:35 pm 17:35 Mostly Cloudy 58 14.6 29 -1.7 33 33 E 5 7 30.21 1023 10 16 N/A
5:55 pm 17:55 Partly Cloudy 59 14.9 29 -1.8 32 32 ESE 7 11 30.22 1023 10 16 N/A
6:15 pm 18:15 Partly Cloudy 60 15.3 30 -1.3 32 32 ESE 9 15 30.22 1023 10 16 N/A
6:35 pm 18:35 Partly Cloudy 59 14.8 29 -1.6 33 33 E 6 9 30.23 1024 10 16 N/A
6:55 pm 18:55 Partly Cloudy 58 14.7 31 -0.6 35 35 ESE 9 15 30.23 1024 10 16 N/A
7:15 pm 19:15 Mostly Cloudy 58 14.7 32 undefined 37 37 ESE 9 15 30.23 1024 10 16 N/A
7:35 pm 19:35 Partly Cloudy 57 14 32 undefined 39 39 E 9 15 30.23 1024 10 16 N/A
7:55 pm 19:55 Partly Cloudy 56 13.5 33 0.3 41 41 ESE 9 15 30.25 1024 10 16 N/A
8:15 pm 20:15 Mostly Cloudy 55 13 33 0.5 43 43 E 8 13 30.25 1024 10 16 N/A
8:35 pm 20:35 Sunny 54 12.1 33 0.6 46 46 E 8 13 30.27 1025 10 16 N/A
8:55 pm 20:55 Clear 52 11.2 33 0.6 48 48 E 8 13 30.29 1026 10 16 N/A
9:15 pm 21:15 Clear 51 10.7 33 0.7 50 50 E 7 11 30.30 1026 10 16 N/A
9:35 pm 21:35 Mostly Cloudy 51 10.5 33 0.7 51 51 E 7 11 30.32 1027 10 16 N/A
9:55 pm 21:55 Cloudy 50 10.1 34 1 54 54 E 7 11 30.33 1027 10 16 N/A
10:15 pm 22:15 Mostly Cloudy 50 9.8 34 1 55 55 E 7 11 30.34 1028 10 16 N/A
10:35 pm 22:35 Cloudy 51 10.5 33 0.7 51 51 ESE 7 11 30.34 1027 10 16 N/A
10:55 pm 22:55 Mostly Cloudy 51 10.3 33 0.6 51 51 ESE 7 11 30.35 1028 10 16 N/A
11:15 pm 23:15 Mostly Cloudy 50 9.8 33 0.7 53 53 SE 7 11 30.35 1028 10 16 N/A
11:35 pm 23:35 Partly Cloudy 47 8.5 34 1 60 60 SSE 7 11 30.38 1029 10 16 N/A
11:55 pm 23:55 Partly Cloudy 48 9 33 0.5 56 56 SE 7 11 30.37 1028 10 16 N/A

Powered by AerisWeather